[[{"header":{"parameterUnit":"m.s-1","parameterCategory":1,"la1":30.2991,"la2":30.254,"lo1":-89.0895,"lo2":-89.0444,"dy":0.0017,"dx":0.0017,"nx":28,"ny":28,"refTime":"2025-08-14T03:00:00:Z","depth":0,"parameterNumber":2,"parameterNumberName":"U-component_of_WINDS"},"data":[0,0,0,0,0,0,0,0,0,0,0,0,0,0,0,0,0,0,0,0,0,0,0,0,0,0,0,0,0,0,0,0,0,0,0,0,0,0,0,0,0,0,0,0,0,0,0,0,0,0,0,0,0,0,0,0,0,0,3.4987,3.4987,0,3.5026,3.5026,3.5027,3.4998,3.4996,3.4995,3.4994,3.5039,3.5041,3.5043,0,0,0,0,0,0,0,0,0,0,0,0,0,3.4892,3.4894,3.4987,3.4987,3.4988,3.5026,3.5026,3.5027,3.4998,3.4996,3.4995,3.4993,3.5038,3.5041,3.5044,0,0,0,0,0,0,0,0,0,0,0,0,0,3.4932,3.4894,3.4987,3.4978,3.4977,3.5026,3.5026,3.5027,3.4998,3.4996,3.4994,3.4993,3.5037,3.504,3.5044,3.5105,0,0,3.5055,3.5057,0,0,0,0,0,0,0,0,3.493,3.4936,3.4979,3.4978,3.4978,3.5005,3.5009,3.5053,3.4999,3.499,3.4994,3.4992,3.5029,3.5033,3.5045,3.5107,3.5109,3.5055,3.5057,3.5059,3.506,0,0,0,0,0,0,0,3.4927,3.4934,3.5002,3.4979,3.4979,3.4973,3.4977,3.5018,3.502,3.4991,3.4989,3.4994,3.5029,3.5042,3.5046,3.5109,3.5055,3.5058,3.5061,3.5062,3.5225,3.5227,0,0,0,0,0,0,3.4925,3.4932,3.5001,3.5003,3.4949,3.4977,3.4981,3.4998,3.502,3.5021,3.4995,3.4992,3.5037,3.5042,3.5047,3.5121,3.5059,3.5062,3.5064,3.5223,3.5226,3.5228,0,0,0,0,0,0,3.4923,3.4931,3.4999,3.4967,3.4975,3.498,3.5,3.5,3.5013,3.5023,3.5024,3.5008,3.5035,3.5042,3.5091,3.5122,3.5064,3.5067,3.5221,3.5224,3.5227,3.5269,0,0,0,0,0,0,3.492,3.4931,3.4952,3.4968,3.4977,3.5041,3.5002,3.5002,3.5019,3.5015,3.5035,3.5036,3.5034,3.5086,3.5094,3.5126,3.507,3.5218,3.5222,3.5226,3.5264,3.5273,3.528,0,0,0,0,0,3.4917,3.4963,3.4954,3.4962,3.5004,3.5042,3.5048,3.5043,3.5021,3.5044,3.5051,3.5036,3.5117,3.5091,3.5101,3.5134,3.5216,3.5221,3.5226,3.5261,3.5271,3.528,0,0,0,0,0,0,3.4953,3.4965,3.4955,3.5007,3.5024,3.5037,3.5066,3.5054,3.5079,3.5075,3.5069,3.5074,3.5125,3.5134,3.5105,3.5195,3.5163,3.517,3.5187,3.5197,3.5204,3.5202,3.5073,0,0,0,0,0,3.4966,3.4995,3.5005,3.505,3.5059,3.5061,3.5078,3.5073,3.509,3.5098,3.5108,3.5127,3.5158,3.5178,3.5206,3.5266,3.5271,3.5294,3.5301,3.5308,3.5314,3.5348,3.5359,3.5244,3.5244,3.5244,0,0,3.4996,3.5006,3.5024,3.5057,3.507,3.5101,3.5067,3.5102,3.5125,3.5104,3.515,3.5158,3.518,3.5234,3.5259,3.5244,3.5347,3.5314,3.5319,3.5322,3.5355,3.5365,3.5375,3.5248,3.5247,3.5246,0,0,3.5065,3.5075,3.5114,3.5127,3.5146,3.5147,3.5157,3.5173,3.5177,3.5223,3.5208,3.5237,3.5289,3.5305,3.532,3.5397,3.5385,3.5406,3.5448,3.5481,3.549,3.5498,3.5527,3.5537,3.5413,3.5413,3.5413,0,3.5099,3.5144,3.5136,3.5172,3.5188,3.5168,3.5209,3.5223,3.5251,3.5263,3.5245,3.531,3.5323,3.5382,3.5401,3.5414,3.5426,3.5404,3.5489,3.5497,3.5504,3.5532,3.5543,3.5415,3.5415,3.5415,3.5415,0,3.5186,3.5217,3.5247,3.5273,3.5293,3.5331,3.5331,3.5352,3.5346,3.535,3.5398,3.5413,3.5444,3.5458,3.5452,3.5517,3.5507,3.5489,3.5458,3.5518,3.5544,3.5554,3.5419,3.5418,3.5417,3.5417,0,0,3.5278,3.53,3.5311,3.5324,3.5344,3.5369,3.5407,3.5437,3.5456,3.5476,3.5509,3.5554,3.5538,3.5555,3.5551,3.558,3.5642,3.5559,3.5559,3.5575,3.5716,3.573,3.5742,3.5634,3.5636,3.5637,3.5715,0,3.5349,3.5414,3.5409,3.5471,3.5502,3.5484,3.5518,3.5535,3.554,3.5568,3.5574,3.5606,3.5582,3.5592,3.562,3.5629,3.5671,3.5623,3.5667,3.5668,3.5662,3.5756,3.577,3.5843,3.5725,3.5726,3.5728,0,3.5441,3.5463,3.5528,3.5545,3.5557,3.5587,3.5615,3.5641,3.5661,3.5663,3.5682,3.5674,3.5715,3.5682,3.5739,3.5707,3.5725,3.5732,3.5735,3.5739,3.5702,3.5764,3.5865,3.5877,3.5743,3.5742,3.5741,0,3.5503,3.555,3.5595,3.5606,3.5626,3.5648,3.5658,3.5676,3.5694,3.5719,3.5731,3.5761,3.5778,3.5802,3.5803,3.5778,3.5861,3.5828,3.5866,3.5866,3.5885,3.5884,3.5992,3.5895,3.5894,3.5894,3.5894,0,3.5584,3.5625,3.5624,3.5652,3.5698,3.5692,3.5738,3.5746,3.5762,3.5793,3.578,3.5809,3.5808,3.5839,3.584,3.5888,3.5896,3.59,3.59,3.5902,3.5901,3.5914,3.5909,3.5897,3.5896,3.5896,3.5895,0,3.5662,3.5662,3.5711,3.5726,3.5731,3.5764,3.5778,3.5806,3.5809,3.5849,3.5858,3.5865,3.59,3.5903,3.5944,3.5945,3.6004,3.5998,3.5997,3.5997,3.6035,3.6032,3.6155,3.6172,3.6063,3.6064,3.6065,0,3.5713,3.5744,3.5763,3.5781,3.5792,3.5823,3.5842,3.5838,3.5859,3.5884,3.591,3.5943,3.597,3.6028,3.6038,3.607,3.6065,3.6107,3.607,3.6071,3.6068,3.6066,3.607,3.6114,3.6115,3.6116,3.6117,0,3.5806,3.5805,3.5831,3.5859,3.5881,3.5903,3.5923,3.594,3.5939,3.5963,3.5999,3.6019,3.6061,3.6096,3.6127,3.614,3.6129,3.6128,3.6139,3.6141,3.614,3.6143,3.6018,3.6126,3.6125,3.6124,3.6124,3.6123,3.5873,3.59,3.5917,3.5948,3.5963,3.5982,3.6009,3.6016,3.6045,3.6078,3.6075,3.6115,3.6136,3.6177,3.6191,3.6223,3.621,3.6225,3.6229,3.6233,3.6238,3.6134,3.6229,3.6229,3.6229,3.6228,3.6228,0,3.5966,3.5976,3.6004,3.6032,3.6057,3.6043,3.6066,3.6088,3.6122,3.6142,3.6168,3.621,3.6244,3.6256,3.629,3.6313,3.631,3.6322,3.6321,3.6325,3.6247,3.6235,3.6325,3.6325,3.6325,3.6325,3.6325,3.6325,3.6017,3.6062,3.6064,3.6117,3.6128,3.6165,3.6179,3.6198,3.6214,3.626,3.6288,3.6295,3.6313,3.6347,3.6378,3.6381,3.6395,3.641,3.6412,3.6339,3.633,3.632,3.6309,3.6413,3.6413,3.6486,3.6487,3.6487]},{"header":{"parameterUnit":"m.s-1","parameterCategory":1,"la1":30.2991,"la2":30.254,"lo1":-89.0895,"lo2":-89.0444,"dy":0.0017,"dx":0.0017,"nx":28,"ny":28,"refTime":"2025-08-14T03:00:00:Z","depth":0,"parameterNumber":3,"parameterNumberName":"V-component_of_WINDS"},"data":[0,0,0,0,0,0,0,0,0,0,0,0,0,0,0,0,0,0,0,0,0,0,0,0,0,0,0,0,0,0,0,0,0,0,0,0,0,0,0,0,0,0,0,0,0,0,0,0,0,0,0,0,0,0,0,0,0,0,0.5516,0.5516,0,0.5495,0.5495,0.5495,0.547,0.5469,0.5469,0.5469,0.5446,0.5446,0.5446,0,0,0,0,0,0,0,0,0,0,0,0,0,0.5534,0.5533,0.5516,0.5516,0.5515,0.5495,0.5495,0.5494,0.547,0.5469,0.5469,0.5468,0.5447,0.5446,0.5446,0,0,0,0,0,0,0,0,0,0,0,0,0,0.5521,0.5533,0.5516,0.5501,0.5499,0.5495,0.5495,0.5494,0.547,0.5469,0.5469,0.5468,0.5447,0.5446,0.5446,0.5455,0,0,0.5445,0.5445,0,0,0,0,0,0,0,0,0.5521,0.552,0.5503,0.5502,0.55,0.5484,0.5493,0.5481,0.547,0.5481,0.5469,0.5468,0.546,0.5458,0.5455,0.5454,0.5453,0.5445,0.5445,0.5445,0.5444,0,0,0,0,0,0,0,0.5522,0.5521,0.5508,0.5503,0.5501,0.5495,0.5492,0.5491,0.5474,0.548,0.5478,0.5476,0.5459,0.5456,0.5455,0.5453,0.5445,0.5445,0.5444,0.5444,0.5458,0.5458,0,0,0,0,0,0,0.5526,0.5522,0.5508,0.5507,0.5509,0.5495,0.5492,0.549,0.5474,0.5471,0.5476,0.5475,0.5457,0.5455,0.5454,0.5463,0.5445,0.5444,0.5444,0.5457,0.5458,0.5458,0,0,0,0,0,0,0.5526,0.5525,0.5509,0.5514,0.5511,0.5495,0.5493,0.549,0.5487,0.5471,0.5468,0.5477,0.5456,0.5454,0.5455,0.5462,0.5444,0.5444,0.5457,0.5457,0.5458,0.5481,0,0,0,0,0,0,0.5527,0.5525,0.5528,0.5514,0.5511,0.5511,0.5493,0.549,0.5487,0.5484,0.547,0.5468,0.5456,0.5456,0.5455,0.5461,0.5443,0.5456,0.5457,0.5458,0.548,0.5483,0.5485,0,0,0,0,0,0.5527,0.5536,0.5529,0.5527,0.5515,0.5511,0.551,0.5496,0.5487,0.549,0.548,0.5468,0.5462,0.5456,0.5455,0.5461,0.5455,0.5457,0.5458,0.5479,0.5482,0.5485,0,0,0,0,0,0,0.5551,0.5534,0.5526,0.553,0.5522,0.5507,0.551,0.55,0.5495,0.5493,0.5476,0.5473,0.5475,0.5468,0.5462,0.5469,0.5457,0.5458,0.5473,0.5476,0.5479,0.548,0.5443,0,0,0,0,0,0.5557,0.5555,0.554,0.5545,0.5542,0.5527,0.5525,0.5515,0.5506,0.5503,0.5493,0.5485,0.5481,0.5478,0.5474,0.5479,0.5475,0.5483,0.5486,0.5488,0.5489,0.549,0.5493,0.5463,0.5463,0.5463,0,0,0.5568,0.5559,0.5559,0.555,0.5543,0.5541,0.5524,0.5524,0.5522,0.5503,0.5502,0.5495,0.5485,0.5488,0.5488,0.5482,0.5497,0.549,0.5492,0.5491,0.5492,0.5495,0.5497,0.5464,0.5463,0.5463,0,0,0.5588,0.5582,0.5584,0.5578,0.5568,0.5558,0.5559,0.5545,0.5539,0.5539,0.5524,0.5522,0.5516,0.5509,0.5505,0.5523,0.5511,0.5522,0.5536,0.5538,0.554,0.5542,0.5547,0.555,0.5523,0.5523,0.5523,0,0.5604,0.5601,0.5587,0.5587,0.5583,0.5566,0.5569,0.5563,0.5552,0.5549,0.5543,0.5534,0.5526,0.5527,0.5531,0.5529,0.5529,0.5523,0.5541,0.5543,0.5545,0.5549,0.5552,0.5525,0.5525,0.5524,0.5524,0,0.562,0.5618,0.5622,0.5612,0.5608,0.561,0.5596,0.5594,0.5585,0.5576,0.5575,0.5566,0.5558,0.5558,0.5549,0.5557,0.5554,0.5544,0.5531,0.5549,0.5553,0.5555,0.5526,0.5526,0.5526,0.5525,0,0,0.5653,0.5635,0.5637,0.5632,0.562,0.5618,0.5619,0.5612,0.561,0.5604,0.5603,0.5598,0.559,0.5585,0.5575,0.5577,0.559,0.5567,0.5566,0.557,0.5598,0.5604,0.5606,0.5583,0.5583,0.5584,0.5598,0,0.5669,0.5669,0.5657,0.566,0.5658,0.5642,0.5643,0.5635,0.5627,0.5624,0.5615,0.5611,0.56,0.5597,0.5598,0.5588,0.5595,0.5587,0.5581,0.5581,0.5583,0.5608,0.5615,0.5629,0.56,0.56,0.56,0,0.5688,0.5683,0.5686,0.5673,0.5672,0.5673,0.5665,0.5663,0.5654,0.5648,0.5643,0.5632,0.5631,0.562,0.5618,0.5613,0.561,0.5605,0.5605,0.5603,0.5591,0.5605,0.5633,0.5635,0.5603,0.5603,0.5602,0,0.5711,0.5704,0.5704,0.5701,0.5687,0.5687,0.5681,0.5672,0.5669,0.5663,0.566,0.5654,0.565,0.5646,0.5633,0.5627,0.5632,0.5621,0.5626,0.5627,0.5627,0.5627,0.5653,0.5628,0.5628,0.5628,0.5628,0,0.5729,0.5731,0.5714,0.5714,0.5716,0.5702,0.5705,0.5697,0.5689,0.5687,0.5674,0.5672,0.5657,0.5653,0.5644,0.5643,0.5642,0.5636,0.5633,0.5636,0.5637,0.5633,0.5631,0.5628,0.5628,0.5628,0.5628,0,0.5754,0.5742,0.5742,0.5729,0.5725,0.5727,0.5716,0.5715,0.5707,0.5705,0.5703,0.569,0.5685,0.5672,0.5665,0.5658,0.566,0.5655,0.5663,0.5661,0.5666,0.5666,0.569,0.5692,0.5667,0.5667,0.5667,0,0.5766,0.5767,0.5754,0.5752,0.5747,0.5744,0.574,0.5727,0.5724,0.5714,0.5715,0.571,0.5704,0.5698,0.5687,0.568,0.5675,0.5684,0.5674,0.5677,0.5673,0.5673,0.5673,0.5686,0.5686,0.5686,0.5686,0,0.5788,0.5782,0.5778,0.5772,0.5768,0.5763,0.5757,0.5756,0.5741,0.5738,0.5734,0.573,0.5722,0.5716,0.5708,0.5702,0.5691,0.569,0.5691,0.5693,0.5697,0.5694,0.5667,0.5689,0.5689,0.5689,0.5688,0.5688,0.5805,0.5805,0.5796,0.5792,0.5786,0.5781,0.5779,0.5771,0.5767,0.576,0.5752,0.5748,0.5739,0.5728,0.5722,0.5718,0.5713,0.5714,0.5714,0.5715,0.5716,0.5699,0.5717,0.5717,0.5717,0.5717,0.5717,0,0.5825,0.5819,0.5816,0.5807,0.5804,0.5796,0.5788,0.5786,0.5782,0.5775,0.5771,0.5765,0.576,0.5748,0.5742,0.5741,0.5736,0.574,0.5739,0.5737,0.5721,0.5721,0.5744,0.5744,0.5744,0.5744,0.5744,0.5744,0.5836,0.5835,0.5829,0.5825,0.5819,0.5815,0.5811,0.5806,0.58,0.5795,0.579,0.5783,0.5774,0.5767,0.5761,0.5758,0.5756,0.5761,0.5756,0.5741,0.5739,0.5736,0.5735,0.5761,0.5761,0.5772,0.5772,0.5772]}]]